Flag for Germany Weather past 2 weeks in Senftenberg, Brandenburg, Germany

Now
41 °F

Fog.


Feels Like: 41 °F
Forecast: 39 / 54 °F
Wind: 2 mph from Southeast

Location: Cottbus

Current Time: Oct 25, 2014 at 1:39:21 AM

Latest Report: Oct 25, 2014 at 1:00 AM


Visibility: 3 mi

Pressure: 30.23 "Hg

Humidity: 92%

Dew point: 39 °F

Location of SenftenbergLocation

Historic Weather in Senftenberg — Graph

°F

Senftenberg temperature yesterday

Maximum temperature yesterday: 46 °F (at 12:00 AM)
Minimum temperature yesterday: 43 °F (at 11:00 PM)
Average temperature yesterday: 44 °F

Past Weeks' High & Low Weather Summary

 TemperatureHumidityPressure
High74 °F (Oct 19, 3:00 PM)100% (Oct 12, 5:00 AM)30.31 "Hg (Oct 12, 5:00 AM)
Low43 °F (Oct 24, 11:00 PM)56% (Oct 19, 2:00 PM)29.44 "Hg (Oct 22, 12:00 AM)
Average56 °F87%29.92 "Hg
* Reported Midnight between Oct 9 and Oct 10 — Midnight between Oct 24 and Oct 25, Senftenberg, Weather by CustomWeather, © 2014

Note: Actual official high and low records may vary slightly from our data, if they occured in-between our weather recording intervals... More about our weather records

Advertising

Senftenberg weather history for previous 24 hours

 ConditionsComfort  
Time TempWeatherWind HumidityBarometerVisibility
12:00 AM
Oct 25
43 °FFog.3 mph91%30.24 "Hg4 mi
11:00 PM
Oct 24
43 °FFog.3 mph90%30.23 "Hg4 mi
10:00 PM43 °FFog.3 mph90%30.24 "Hg4 mi
9:00 PM43 °FFog.5 mph90%30.24 "Hg4 mi
8:00 PM44 °FLow clouds.3 mph89%30.24 "Hg5 mi
7:00 PM45 °FLow clouds.3 mph87%30.24 "Hg5 mi
6:00 PM45 °FLow clouds.2 mph87%30.24 "Hg6 mi
5:00 PM45 °FLow clouds.3 mph88%30.25 "Hg6 mi
4:00 PM45 °FLow clouds.3 mph88%30.26 "Hg6 mi
3:00 PM46 °FLow clouds.2 mph89%30.27 "Hg6 mi
2:00 PM46 °FLow clouds.2 mph89%30.28 "Hg6 mi
1:00 PM45 °FLow clouds.2 mph89%30.29 "Hg6 mi
12:00 PM44 °FLow clouds.2 mph93%30.30 "Hg5 mi
11:00 AM43 °FLow clouds.3 mph94%30.31 "Hg5 mi
10:00 AM43 °FFog.2 mph96%30.31 "Hg4 mi
9:00 AM43 °FLow clouds.2 mph94%30.29 "Hg7 mi
8:00 AM43 °FLow clouds.3 mph97%30.29 "Hg3 mi
7:00 AM44 °FDrizzle. Low clouds.2 mph96%30.28 "Hg2 mi
6:00 AM45 °FLow clouds.2 mph96%30.27 "Hg3 mi
5:00 AM45 °FLow clouds.2 mph95%30.27 "Hg4 mi
4:00 AM45 °FDrizzle. Low clouds.1 mph96%30.27 "Hg2 mi
3:00 AM46 °FFog.1 mph93%30.27 "Hg4 mi
2:00 AM46 °FLow clouds.1 mph93%30.26 "Hg6 mi
1:00 AM46 °FDrizzle. Low clouds.1 mph90%30.26 "Hg6 mi
Weather by CustomWeather, © 2014

See weather overviewHow to use our weather pages